www.pogodaiklimat.ru

Погода и климат >> Архив погоды >> Аргентина >> San Ramon de la Nueva Oran


ПОГОДА в San Ramon de la Nueva Oran

  • Прогноз погоды в San Ramon de la Nueva Oran
  • Монитор погоды в San Ramon de la Nueva Oran
  • Климат города

АРХИВ ПОГОДЫ в San Ramon de la Nueva Oran

Время (UTC), дата Ветер
(напр.,м/с)
 
Видим.   Явления Облачность Т
(С)
Тd
(С)
f
(%)
Тe
(С)
Тes
(С)
Комфортность P
(гПа)
Po
(гПа)
Тmin
(С)
Tmax
(С)
R
(мм)
R24
(мм)
S
(см)
12 15.11 СЗ 4 12 км ясно +26.2 +19.0 65 +31 +35 очень
душно
1000.4 960.9 +21.0 +28.7
15 15.11 С 3 12 км 1/1 900 м
[Cu med, cong]
+35.0 +18.8 39 +40 +56 опасность
солнечного
удара
998.2 959.0
18 15.11 С 3 12 км 1/1 900 м
[Cu med, cong]
+39.4 +18.6 30 +43 +58 опасность
перегрева
994.8 955.8
21 15.11 СВ 1 12 км 3/1 900 м
[Cu med, cong Cs]
+39.6 +16.3 26 +42 +46 опасность
перегрева
992.8 954.0
00 16.11 штиль 0 15 км 3/1 900 м
[Cu med, cong Cs]
+31.4 +20.4 52 +38 +38 очень
душно
994.5 955.4 +26.2 +41.2
03 16.11 З 1 15 км 3/3 600 м
[Sc]
+26.6 +20.3 68 +33 +33 очень
душно
996.6 957.6
06 16.11 штиль 0 10 км ясно +24.0 +18.4 71 +28 +28 душно 997.8 958.9
09 16.11 ЮВ 9 6000 м пыльный позёмок ясно +24.6 +13.0 48 +27 +27 жарко 1004.7 965.6
12 16.11 Ю 4 8000 м пыль 4/0
[Ac und Cs]
+24.8 +4.7 27 +24 +27 комфорт 1011.7 971.8 +23.0 +31.4
15 16.11 ЮВ 3 8000 м пыль 9/3 600 м
[Sc Ac und Cs]
+26.8 +6.4 27 +26 +33 жарко 1012.4 972.2
18 16.11 СЗ 3 10 км 9/4 600 м
[Sc Ac und Cs]
+28.5 +7.4 26 +28 +34 жарко 1008.4 968.4
21 16.11 З 4 10 км 8/3 600 м
[Sc Ac und Cs]
+26.8 +12.3 41 +28 +29 жарко 1005.5 965.4
00 17.11 штиль 0 10 км 9/4 600 м
[Sc Ac und]
+24.6 +14.3 53 +27 +27 жарко 1007.2 967.0 +24.6 +29.0
03 17.11 СЗ 3 10 км 10/5 600 м
[Sc Ac As]
+23.0 +15.8 64 +27 +27 душно 1009.3 969.0
06 17.11 штиль 0 10 км 10/6 600 м
[Sc Ac As]
+22.4 +15.5 65 +26 +26 жарко 1006.1 966.1
09 17.11 штиль 0 10 км 6/3 600 м
[Sc Ac und]
+20.2 +15.5 74 +23 +23 комфорт 1004.9 964.6
12 17.11 З 3 10 км ясно +23.3 +13.4 54 +27 +32 душно 1005.3 965.0 +19.4 +24.6
15 17.11 С 3 10 км 1/0
[Cs]
+29.2 +10.7 32 +30 +47 жарко 1002.4 962.6
18 17.11 С 3 10 км 1/0
[Cs]
+33.4 +13.1 29 +34 +50 очень
жарко
998.2 958.8
21 17.11 ЮВ 3 10 км 3/0
[Ac und]
+32.4 +14.3 33 +34 +37 очень
жарко
998.6 959.0
00 18.11 штиль 0 10 км 3/0
[Ac und]
+25.6 +17.4 61 +30 +30 душно 1002.0 962.0 +23.3 +33.8
03 18.11 СЗ 4 10 км ясно +23.4 +15.9 63 +28 +28 душно 1003.6 963.8
06 18.11 штиль 0 10 км ясно +21.4 +16.2 72 +25 +25 комфорт 1002.1 962.5
09 18.11 штиль 0 10 км ясно +18.8 +16.2 85 +20 +20 1005.8 965.8
12 18.11 ЮВ 3 10 км 8/3 600 м
[Sc Ac und]
+25.2 +16.9 60 +29 +31 душно 1009.5 969.3 +18.8 +25.6
15 18.11 ЮВ 3 10 км 9/5 600 м
[Cu Sc Ac und]
+26.7 +18.0 59 +31 +35 душно 1009.6 969.4
18 18.11 В 3 8000 м осадки на расстоянии {дождь} 10/6 240 м
[Frnb Ac As]
+23.2 +16.8 67 +28 +30 душно 1009.4 968.8 1
21 18.11 ЮЗ 3 10 км 10/6 600 м
[Sc Ac As]
+21.3 +14.4 65 +24 +25 комфорт 1009.5 968.6
00 19.11 Ю 4 10 км 10/6 600 м
[Sc Ac As]
+21.1 +12.5 58 +23 +23 комфорт 1011.5 971.0 +21.0 +27.7
03 19.11 В 3 10 км 10/6 600 м
[Sc Ac As]
+19.9 +14.7 72 +22 +22 комфорт 1013.8 973.2
06 19.11 С 4 10 км 9/6 600 м
[Sc Ac As]
+19.1 +14.9 77 +20 +20 1011.7 970.9
09 19.11 СЗ 3 10 км 4/4 600 м
[Sc]
+17.2 +15.7 91 +17 +17 1010.6 969.6
12 19.11 С 1 10 км 1/1 900 м
[Sc]
+20.8 +16.7 77 +25 +31 комфорт 1011.1 970.2 +15.5 +21.1 1
15 19.11 С 1 10 км 1/1 750 м
[Cu hum]
+29.2 +11.9 34 +30 +51 опасность
солнечного
удара
1008.6 968.4
18 19.11 С 3 10 км 1/1 750 м
[Cu hum]
+31.8 +13.4 33 +33 +48 жарко 1005.4 965.4
21 19.11 Ю 1 10 км 1/1 750 м
[Sc]
+32.8 +13.6 31 +34 +38 очень
жарко
1003.7 963.7
00 20.11 штиль 0 10 км ясно +27.6 +14.7 45 +30 +30 жарко 1005.2 965.0 +20.8 +33.3
03 20.11 З 3 10 км ясно +22.0 +17.2 74 +26 +26 душно 1006.8 966.8
06 20.11 штиль 0 10 км ясно +19.5 +17.2 87 +22 +22 комфорт 1004.9 965.0
09 20.11 СЗ 4 10 км ясно +18.0 +15.3 84 +18 +18 1004.1 964.2
12 20.11 З 3 10 км ясно +22.9 +16.6 68 +28 +33 душно 1005.9 965.8 +15.8 +27.6
15 20.11 штиль 0 10 км ясно +31.4 +13.3 33 +32 +60 опасность
солнечного
удара
1004.3 964.5
18 20.11 штиль 0 10 км ясно +36.2 +14.6 28 +37 +63 опасность
солнечного
удара
1000.3 960.8
21 20.11 штиль 0 10 км 1/1 600 м
[Cu hum]
+36.4 +14.5 27 +37 +42 очень
жарко
998.5 959.0
00 21.11 штиль 0 10 км ясно +28.2 +17.8 53 +33 +33 очень
душно
1000.0 960.2 +22.9 +37.1
03 21.11 ЮЗ 1 10 км 3/0
[Ac und]
+24.8 +17.4 63 +29 +29 душно 1001.9 962.4
06 21.11 ЮВ 3 10 км ясно +22.2 +17.6 75 +27 +27 душно 1001.0 961.7
09 21.11 Ю 1 10 км ясно +21.4 +16.3 73 +25 +25 комфорт 1002.9 963.4
12 21.11 С 3 10 км ясно +26.8 +17.0 55 +31 +36 душно 1006.6 966.8 +21.1 +28.2
15 21.11 В 12 4000 м пыльный позёмок 3/3 600 м
[Cu med, cong]
+31.9 +12.9 31 +33 +33 жарко 1007.7 968.0
18 21.11 ЮВ 12 4000 м 4/3 600 м
[Cu med, cong Ac trans]
+31.4 +12.8 32 +32 +32 жарко 1007.7 967.8
21 21.11 ЮВ 9 6000 м пыль 9/6 600 м
[Sc Ac und]
+26.8 +12.8 42 +28 +29 жарко 1009.2 968.9
00 22.11 ЮВ 4 10 км 10/6 600 м
[Sc Ac As]
+24.6 +12.8 48 +27 +27 жарко 1012.5 972.2 +24.6 +32.2
03 22.11 ЮВ 3 10 км 10/8 600 м
[Sc Ac As]
+23.0 +13.9 57 +26 +26 жарко 1014.6 974.5

 

Местоположение метеостанции San Ramon de la Nueva Oran (Аргентина): широта -23.15 долгота -64.31 высота над уровнем моря 357 м.

В архиве по умолчанию представлена погода в San Ramon de la Nueva Oran за последнюю неделю. Архивные данные за месяц целиком и за предыдущие месяцы, начиная с января 2011 года, Вы можете получить, выбрав интересующий диапазон дат из раскрывающегося списка и нажав кнопку "Ввод!".

Внимание! Время в таблицах - всемирное. Для получения местного времени необходимо прибавить поправку, которая в San Ramon de la Nueva Oran равна -3 ч.

Смотрите также архив погоды в соседних городах и на ближайших метеорологических станциях:

Погода в Bermejo (Боливия) (43 км)
Погода в Tartagal (Аргентина) (79 км)
Погода в Yacuiba (Боливия) (150 км)
Погода в San Salvador de Jujuy (Аргентина) (158 км)
Погода в La Quiaca (Аргентина) (177 км)
Погода в Tarija (Боливия) (182 км)
Погода в Salta (Аргентина) (223 км)
Погода в Villamontes (Боливия) (229 км)
Погода в Prats-Gil (Парагвай) (292 км)
Погода в Camiri (Боливия) (360 км)

Пояснения к столбцам:

Ветер - указаны скорость ветра в м/с - средняя за 10 мин, порывы в срок и между сроками (в фигурных скобках) и направление, откуда дует ветер: С - северный, СВ - северо-восточный, В - восточный, ЮВ - юго-восточный, Ю - южный, ЮЗ - юго-западный, З - западный, СЗ - северо-западный.
Видимость - горизонтальная дальность видимости в метрах или километрах. При видимости от 1 до 10 км при отсутствии осадков обычно наблюдается дымка, при ухудшении видимости до 1 км и менее - туман. В сухую погоду видимость может ухудшаться дымом, пылью или мглою.
Явления - указаны атмосферные явления, наблюдавшиеся в срок или в последний час перед сроком; фигурными скобками обозначены явления, наблюдавшиеся между сроками (за 1-3 часа до срока); квадратными скобками обозначены град или гололедные отложения с указанием их диаметра в мм.
Облачность - указаны через наклонную черту общая и нижняя облачность в баллах и высота нижней границы облаков в метрах; квадратными скобками обозначены формы облаков: Ci - перистые, Cs - перисто-слоистые, Cc - перисто-кучевые, Ac - высококучевые, As - высокослоистые, Sc - слоисто-кучевые, Ns - слоисто-дождевые, Cu - кучевые, Cb - кучево-дождевые. Подробнее классификацию облаков см. в Атласе облаков (PDF).
T - Температура воздуха - температура, измеренная на высоте 2 м над землей.
Td - Температура точки росы - температура, при понижении до которой содержащийся в воздухе водяной пар достигнет насыщения.
f - Относительная влажность воздуха - влажноcть воздуха, измеренная на высоте 2 м над землей.
Te - Эффективная температура - температура, которую ощущает одетый по сезону человек в тени. Характеристика душности погоды. При расчете учитывается влияние влажности воздуха и скорости ветра на теплоощущения человека.
Tes - Эффективная температура на солнце - температура, которую ощущает человек, с поправкой на солнечный нагрев. Характеристика знойности погоды. Зависит от высоты солнца над горизонтом, облачности и скорости ветра. Ночью, в пасмурную погоду, а также при ветре 12 м/с и более поправка равна нулю.
P - Атмосферное давление - приведенное к уровню моря атмосферное давление.
Po - Атмосферное давление - измеренное на уровне метеостанции атмосферное давление.
Tmin - Минимальная температура - минимум температуры воздуха на высоте 2 м над землей.
Tmax - Максимальная температура - максимум температуры воздуха на высоте 2 м над землей.
R - Количество осадков - Количество выпавших осадков за период времени, мм. При наведении курсора мыши на число - период времени, за который выпало указанное количество осадков.
R24 - Количество осадков - Количество выпавших осадков за 24 часа, мм.
S - Снежный покров - Высота снежного покрова, см. При наведении курсора мыши на число - состояние снежного покрова и степень покрытия местности в баллах.